QPF
0.00 0.00 0.00 0.00 0.00 0.00 0.00 0.00 0.00 0.00 0.00 0.00 0.00 0.00 0.00 0.00 0.00 0.00 0.00 0.00 0.00 0.00 0.00 0.00 0.00 0.00 0.00 0.00 0.00 0.00 0.00 0.00
0.00 0.00 0.00 0.00 0.00 0.00 0.00 0.00 0.00 0.00 0.00 0.00 0.00 0.00 0.00 0.00 0.00 0.00 0.00 0.00 0.00 0.00 0.00 0.00 0.00 0.00 0.00 0.00 0.00 0.00 0.00 0.00
0.00 0.00 0.00 0.00 0.00 0.00 0.00 0.00 0.00 0.00 0.00 0.00 0.00 0.00 0.00 0.00 0.00 0.00 0.00 0.00 0.00 0.00 0.00 0.00 0.00 0.00 0.00 0.00 0.00 0.00 0.00 0.00
0.00 0.00 0.00 0.00 0.00 0.00 0.00 0.00 0.00 0.00 0.00 0.00 0.00 0.00 0.00 0.00 0.00 0.00 0.00 0.00 0.00 0.00 0.00 0.00 0.00 0.00 0.00 0.00 0.00 0.00 0.00 0.00
0.00 0.00 0.00 0.00 0.00 0.00 0.00 0.00 0.00 0.00 0.00 0.00 0.00 0.00 0.00 0.00 0.00 0.00 0.00 0.00 0.00 0.00 0.00 0.00 0.00 0.00 0.00 0.00 0.00 0.00 0.00 0.00
0.00 0.00 0.00 0.00 0.00 0.00 0.00 0.00 0.00 0.00 0.00 0.00 0.00 0.00 0.00 0.00 0.00 0.00 0.00 0.00 0.00 0.00 0.00 0.00 0.00 0.00 0.00 0.00 0.00 0.00 0.00 0.00
0.00 0.00 0.00 0.00 0.00 0.00 0.00 0.00 0.00 0.00 0.00 0.00 0.00 0.00 0.00 0.00 0.00 0.00 0.00 0.00 0.00 0.00 0.00 0.00 0.00 0.00 0.00 0.00 0.00 0.00 0.00 0.00
0.00 0.00 0.00 0.00 0.00 0.00 0.00 0.00 0.00 0.00 0.00 0.00 0.00 0.00 0.00 0.00 0.00 0.00 0.00 0.00 0.00 0.00 0.00 0.00 0.00 0.00 0.00 0.00 0.00 0.00 0.00 0.00
0.00 0.00 0.00 0.00 0.00 0.00 0.00 0.00 0.00 0.00 0.00 0.00 0.00 0.01 0.00 0.00 0.00 0.00 0.00 0.00 0.00 0.01 0.01 0.00 0.00 0.00 0.00 0.00 0.00 0.00 0.00 0.00
0.00 0.00 0.00 0.00 0.00 0.00 0.00 0.00 0.00 0.00 0.00 0.00 0.01 0.02 0.01 0.01 0.00 0.00 0.01 0.01 0.01 0.04 0.05 0.02 0.00 0.00 0.00 0.00 0.00 0.00 0.00 0.00
0.00 0.00 0.00 0.00 0.00 0.00 0.00 0.00 0.00 0.00 0.00 0.00 0.00 0.00 0.01 0.02 0.01 0.01 0.01 0.00 0.01 0.03 0.05 0.06 0.04 0.01 0.00 0.01 0.01 0.01 0.00 0.00
0.00 0.00 0.00 0.00 0.00 0.00 0.00 0.00 0.00 0.00 0.00 0.00 0.00 0.00 0.00 0.00 0.02 0.01 0.00 0.00 0.01 0.01 0.04 0.07 0.08 0.05 0.03 0.02 0.01 0.01 0.01 0.00
0.00 0.00 0.00 0.00 0.00 0.00 0.00 0.00 0.01 0.00 0.00 0.00 0.00 0.00 0.00 0.00 0.01 0.01 0.00 0.00 0.00 0.00 0.00 0.01 0.03 0.06 0.05 0.02 0.01 0.01 0.00 0.00
0.00 0.00 0.00 0.00 0.02 0.02 0.01 0.00 0.00 0.00 0.00 0.00 0.00 0.00 0.00 0.00 0.00 0.00 0.00 0.00 0.00 0.00 0.00 0.00 0.00 0.01 0.02 0.03 0.01 0.00 0.00 0.00
0.02 0.01 0.00 0.00 0.00 0.01 0.00 0.00 0.00 0.00 0.00 0.00 0.00 0.00 0.00 0.00 0.00 0.00 0.00 0.00 0.00 0.00 0.00 0.00 0.01 0.01 0.01 0.01 0.00 0.00 0.00 0.00
0.00 0.00 0.01 0.00 0.00 0.00 0.00 0.00 0.00 0.00 0.00 0.00 0.00 0.00 0.00 0.00 0.00 0.00 0.00 0.00 0.00 0.00 0.00 0.00 0.01 0.01 0.01 0.01 0.00 0.00 0.00 0.00
0.00 0.00 0.00 0.00 0.00 0.00 0.00 0.00 0.00 0.00 0.00 0.00 0.00 0.00 0.00 0.00 0.00 0.00 0.00 0.00 0.00 0.00 0.00 0.01 0.01 0.01 0.00 0.00 0.00 0.00 0.00 0.00
0.00 0.00 0.00 0.00 0.00 0.00 0.00 0.00 0.00 0.00 0.00 0.00 0.00 0.00 0.00 0.00 0.00 0.00 0.00 0.00 0.00 0.00 0.00 0.00 0.00 0.00 0.00 0.00 0.00 0.00 0.00 0.00
0.00 0.00 0.00 0.00 0.00 0.00 0.00 0.00 0.00 0.00 0.00 0.00 0.00 0.00 0.00 0.00 0.00 0.00 0.00 0.00 0.00 0.00 0.00 0.00 0.00 0.00 0.00 0.00 0.00 0.01 0.00 0.00
0.00 0.00 0.00 0.00 0.00 0.00 0.00 0.00 0.00 0.00 0.00 0.00 0.00 0.00 0.00 0.00 0.00 0.00 0.00 0.00 0.00 0.00 0.00 0.00 0.00 0.00 0.00 0.00 0.00 0.01 0.01 0.00
MSLP
1012.10 1012.37 1012.90 1013.40 1013.84 1014.19 1014.65 1015.07 1015.37 1015.65 1015.85 1016.18 1016.53 1016.89 1017.21 1017.55 1017.77 1017.92 1018.07 1018.19 1018.49 1018.83 1018.80 1018.72 1018.82 1018.91 1018.77 1018.91 1019.09 1019.30 1019.53 1019.67
1012.73 1013.21 1013.55 1013.87 1014.27 1014.46 1014.70 1015.07 1015.37 1015.58 1015.91 1016.41 1016.90 1017.21 1017.43 1017.62 1017.86 1018.05 1018.30 1018.49 1018.79 1019.09 1019.10 1019.02 1019.13 1019.15 1019.16 1019.25 1019.31 1019.37 1019.60 1019.80
1013.12 1013.41 1013.83 1014.24 1014.53 1014.69 1014.77 1015.11 1015.45 1015.87 1016.35 1016.61 1016.91 1017.31 1017.55 1017.81 1017.98 1018.12 1018.33 1018.48 1018.74 1018.98 1019.00 1018.99 1019.25 1019.39 1019.44 1019.56 1019.62 1019.74 1019.78 1020.11
1013.32 1013.42 1013.69 1014.11 1014.44 1014.70 1015.09 1015.40 1015.83 1016.16 1016.40 1016.62 1017.07 1017.48 1017.72 1017.79 1017.86 1018.03 1018.16 1018.33 1018.59 1018.93 1019.22 1019.16 1019.19 1019.42 1019.48 1019.64 1019.80 1020.01 1020.12 1020.27
1013.09 1013.27 1013.45 1013.78 1014.15 1014.85 1015.40 1015.57 1015.84 1016.09 1016.40 1016.72 1017.05 1017.37 1017.62 1017.89 1018.11 1018.18 1018.40 1018.47 1018.76 1019.00 1019.19 1019.36 1019.45 1019.59 1019.59 1019.75 1019.96 1020.01 1020.22 1020.26
1012.64 1013.02 1013.45 1013.87 1014.20 1014.51 1014.85 1015.25 1015.73 1016.05 1016.33 1016.59 1017.04 1017.39 1017.61 1017.94 1018.27 1018.48 1018.59 1018.79 1018.93 1019.21 1019.34 1019.35 1019.35 1019.33 1019.41 1019.62 1019.74 1019.93 1020.25 1020.31
1012.19 1012.74 1013.19 1013.51 1013.93 1014.21 1014.67 1015.11 1015.53 1015.77 1016.20 1016.48 1016.88 1017.37 1017.65 1017.87 1017.96 1018.08 1018.26 1018.43 1018.75 1019.02 1019.49 1019.51 1019.54 1019.46 1019.55 1019.56 1019.71 1019.89 1020.13 1020.27
1011.96 1012.36 1012.76 1013.15 1013.68 1014.04 1014.48 1014.98 1015.28 1015.64 1015.89 1016.07 1016.54 1016.79 1017.04 1017.11 1017.34 1017.50 1017.66 1018.01 1018.35 1018.66 1019.13 1019.50 1019.54 1019.47 1019.56 1019.86 1019.87 1020.04 1020.27 1020.34
1011.53 1012.07 1012.55 1013.04 1013.45 1013.86 1014.28 1014.63 1014.99 1015.29 1015.46 1015.71 1015.93 1016.16 1016.54 1017.06 1017.37 1017.55 1017.62 1018.11 1018.44 1018.53 1018.72 1019.17 1019.26 1019.31 1019.35 1019.79 1019.98 1020.15 1020.37 1020.58
1011.04 1011.70 1012.30 1012.81 1013.20 1013.58 1013.96 1014.34 1014.62 1014.84 1015.03 1015.30 1015.63 1016.05 1016.35 1016.73 1017.16 1017.38 1017.45 1017.72 1017.95 1018.08 1018.23 1018.86 1019.30 1019.42 1018.97 1019.39 1020.33 1020.50 1020.66 1020.70
1010.66 1011.24 1011.92 1012.61 1013.27 1013.62 1013.86 1014.21 1014.63 1014.92 1015.22 1015.52 1015.69 1015.80 1016.04 1016.28 1016.55 1016.90 1017.23 1017.51 1017.72 1017.82 1018.22 1018.47 1018.78 1019.30 1019.68 1019.69 1019.32 1020.37 1021.21 1021.41
1010.44 1011.23 1011.86 1012.48 1013.16 1013.69 1013.99 1014.18 1014.50 1014.77 1015.09 1015.45 1015.74 1015.87 1015.93 1016.14 1016.20 1016.37 1016.59 1017.16 1017.54 1017.69 1017.95 1018.31 1018.51 1018.86 1019.21 1019.47 1019.18 1019.92 1020.24 1020.95
1010.23 1010.90 1011.61 1012.18 1012.80 1013.47 1013.87 1014.09 1014.36 1014.60 1014.71 1014.87 1015.11 1015.18 1015.50 1015.80 1015.91 1016.23 1016.39 1016.82 1016.90 1017.35 1017.68 1017.99 1018.35 1018.65 1018.88 1019.50 1020.07 1020.56 1020.67 1020.43
1010.04 1010.61 1011.10 1011.92 1012.53 1013.17 1013.56 1013.96 1014.39 1014.62 1014.64 1014.66 1014.77 1014.93 1015.03 1015.22 1015.48 1015.69 1016.05 1016.31 1016.50 1016.78 1017.14 1017.48 1017.76 1018.16 1018.36 1019.29 1019.71 1020.65 1020.72 1020.99
1009.87 1010.53 1011.25 1011.81 1012.46 1013.17 1013.91 1014.26 1014.49 1014.70 1014.77 1014.86 1014.90 1014.98 1015.09 1015.18 1015.45 1015.62 1015.76 1015.96 1016.07 1015.99 1016.48 1016.81 1017.11 1017.29 1017.45 1018.01 1019.02 1019.13 1020.28 1020.84
1010.02 1010.64 1011.36 1011.91 1012.50 1013.22 1013.75 1014.14 1014.77 1014.81 1014.91 1014.91 1015.15 1015.26 1015.27 1015.33 1015.42 1015.50 1015.70 1015.65 1015.77 1015.77 1016.13 1016.34 1016.65 1016.89 1017.01 1017.07 1017.52 1017.54 1018.85 1020.25
1010.23 1010.81 1011.53 1012.04 1012.57 1012.93 1013.61 1014.16 1014.43 1014.65 1014.99 1015.20 1015.31 1015.53 1015.28 1015.32 1015.42 1015.54 1015.56 1015.74 1015.74 1015.76 1015.83 1015.91 1015.90 1016.16 1016.36 1016.33 1017.13 1017.58 1018.00 1018.44
1010.77 1011.26 1011.80 1012.17 1012.73 1013.21 1013.53 1013.96 1014.31 1014.84 1014.93 1015.15 1015.37 1015.36 1015.02 1014.88 1015.23 1015.31 1015.43 1015.52 1015.52 1015.43 1015.40 1015.74 1015.83 1015.92 1015.88 1015.93 1015.80 1016.57 1016.85 1017.45
1010.98 1011.33 1011.87 1012.34 1012.72 1012.89 1013.20 1013.53 1014.03 1014.36 1014.37 1014.60 1014.66 1014.72 1014.74 1014.84 1014.87 1015.06 1015.10 1015.06 1015.15 1015.37 1015.69 1015.47 1015.49 1015.77 1015.54 1015.59 1015.37 1015.09 1015.00 1015.87
1011.33 1011.65 1011.98 1012.30 1012.56 1012.86 1013.07 1013.33 1013.54 1013.65 1013.82 1014.16 1014.14 1014.06 1014.03 1014.32 1014.46 1014.44 1014.67 1014.72 1014.79 1015.05 1015.10 1015.30 1015.29 1015.25 1015.29 1015.43 1015.26 1014.95 1014.93 1015.33
Thickness
5747 5745 5740 5735 5731 5728 5723 5718 5715 5712 5710 5706 5702 5698 5694 5690 5687 5684 5682 5679 5676 5672 5671 5671 5668 5666 5667 5665 5661 5657 5654 5650
5742 5737 5734 5730 5726 5723 5721 5716 5712 5710 5707 5701 5695 5691 5688 5686 5683 5680 5676 5672 5668 5665 5664 5664 5661 5660 5659 5659 5657 5655 5651 5647
5737 5734 5729 5725 5721 5719 5718 5713 5710 5705 5699 5696 5692 5687 5683 5680 5678 5675 5671 5669 5665 5662 5661 5660 5656 5653 5651 5650 5649 5648 5646 5640
5733 5731 5727 5723 5719 5717 5712 5709 5704 5699 5696 5692 5687 5681 5678 5675 5674 5670 5668 5665 5661 5656 5652 5652 5652 5650 5647 5644 5643 5640 5638 5636
5731 5729 5725 5722 5718 5712 5707 5704 5700 5696 5691 5687 5684 5679 5674 5669 5666 5664 5660 5657 5653 5649 5647 5645 5643 5642 5641 5638 5635 5634 5631 5630
5732 5726 5722 5717 5713 5710 5706 5702 5696 5692 5688 5684 5679 5674 5670 5664 5658 5654 5651 5648 5645 5641 5640 5638 5637 5637 5636 5633 5630 5628 5625 5622
5730 5724 5720 5716 5713 5709 5702 5697 5692 5689 5684 5679 5674 5667 5663 5658 5654 5651 5648 5646 5641 5637 5631 5630 5628 5627 5625 5625 5623 5619 5617 5615
5727 5724 5721 5715 5710 5706 5700 5693 5688 5684 5680 5676 5670 5664 5659 5656 5652 5649 5646 5641 5636 5630 5623 5620 5618 5618 5616 5611 5610 5609 5606 5606
5729 5724 5717 5712 5708 5701 5695 5690 5685 5680 5676 5671 5665 5660 5655 5649 5644 5641 5637 5629 5624 5620 5614 5609 5609 5608 5607 5601 5598 5597 5595 5593
5731 5724 5717 5711 5705 5699 5692 5686 5681 5676 5671 5666 5660 5654 5649 5643 5636 5632 5627 5623 5619 5615 5611 5603 5599 5596 5599 5594 5584 5582 5581 5581
5727 5722 5714 5705 5698 5692 5686 5681 5673 5668 5662 5657 5653 5649 5645 5639 5632 5625 5618 5613 5608 5605 5599 5595 5591 5587 5578 5577 5582 5571 5564 5562
5724 5715 5708 5700 5692 5685 5679 5673 5667 5662 5656 5648 5642 5638 5634 5629 5626 5620 5614 5606 5599 5595 5591 5586 5582 5576 5571 5568 5570 5562 5561 5550
5719 5712 5704 5698 5689 5680 5674 5669 5662 5656 5649 5643 5636 5631 5624 5618 5613 5606 5600 5593 5592 5586 5580 5574 5569 5565 5560 5551 5547 5543 5544 5546
5714 5708 5700 5692 5685 5675 5669 5661 5652 5644 5638 5633 5626 5620 5616 5611 5604 5598 5591 5585 5581 5576 5571 5565 5559 5554 5551 5539 5536 5529 5530 5526
5708 5699 5691 5684 5675 5664 5653 5646 5639 5632 5626 5620 5616 5612 5605 5598 5590 5586 5582 5576 5572 5570 5562 5557 5552 5548 5545 5538 5525 5533 5521 5516
5700 5691 5682 5673 5664 5654 5646 5638 5628 5621 5615 5609 5603 5597 5592 5587 5580 5573 5568 5566 5561 5558 5551 5546 5541 5538 5534 5532 5525 5524 5517 5508
5689 5680 5670 5661 5653 5646 5635 5626 5618 5611 5602 5595 5589 5584 5583 5575 5569 5564 5559 5552 5548 5544 5540 5538 5537 5532 5529 5526 5518 5511 5508 5508
5674 5666 5658 5650 5640 5631 5625 5616 5608 5598 5591 5583 5576 5572 5570 5568 5561 5554 5545 5539 5535 5533 5530 5526 5523 5521 5520 5518 5518 5509 5505 5502
5662 5656 5648 5638 5629 5623 5616 5608 5598 5589 5582 5575 5571 5567 5561 5554 5549 5539 5533 5530 5525 5520 5514 5514 5512 5507 5508 5507 5507 5509 5508 5502
5647 5642 5635 5627 5620 5611 5603 5595 5588 5580 5573 5565 5564 5560 5553 5542 5535 5530 5523 5517 5513 5509 5506 5501 5498 5496 5493 5489 5490 5494 5492 5488